Home > Weather > Chalon-sur-Saône > Past weeks

Flag for France Weather for the Past 2 Weeks in Chalon-sur-Saône, France

Now
41 °F

Rain. Mostly cloudy.


Feels Like: 36 °F
Forecast: 34 / 40 °F
Wind: 8 mph from South

Location: Dole Tavaux

Current Time: Feb 14, 2016 at 11:13:26 AM

Latest Report: Feb 14, 2016 at 10:30 AM


Visibility: 6 mi

Pressure: 29.27 "Hg

Humidity: 93%

Dew point: 39 °F

Location of Chalon-sur-SaôneLocation

Historic Weather in Chalon-sur-Saône — Graph

°F

Chalon-sur-Saône Temperature Yesterday

Maximum temperature yesterday: 50 °F (at 5:00 PM)
Minimum temperature yesterday: 43 °F (at 1:00 AM)
Average temperature yesterday: 46 °F

High & Low Weather Summary for the Past Weeks

 TemperatureHumidityPressure
High57 °F (Feb 6, 1:30 PM)100% (Jan 31, 6:00 AM)30.54 "Hg (Jan 31, 6:00 AM)
Low30 °F (Feb 11, 6:30 AM)54% (Feb 6, 9:00 PM)29.18 "Hg (Feb 13, 5:00 PM)
Average45 °F86%29.92 "Hg
* Reported Jan 30 10:00 AM — Feb 14 10:00 AM, Chalon-sur-Saône, Weather by CustomWeather, © 2016

Note: Actual official high and low records may vary slightly from our data, if they occured in-between our weather recording intervals... More about our weather records

Advertising

Chalon-sur-Saône Weather History for the Previous 24 Hours

 ConditionsComfort  
Time TempWeatherWind HumidityBarometerVisibility
10:00 AM
Sun, Feb 14
41 °FLight rain. Mostly cloudy.8 mph100%29.27 "Hg6 mi
9:30 AM41 °FLight rain. Overcast.5 mph100%29.24 "HgN/A
8:30 AM43 °FRain. Mostly cloudy.3 mph93%29.21 "Hg4 mi
8:00 AM43 °FRain. Mostly cloudy.6 mph93%29.18 "Hg4 mi
7:30 AM43 °FRain. Mostly cloudy.3 mph93%29.18 "Hg4 mi
7:00 AM43 °FRain. Overcast.3 mph93%29.18 "Hg4 mi
6:30 AM43 °FRain. Overcast.2 mph93%29.18 "Hg4 mi
6:00 AM45 °FRain. Passing clouds.2 mph87%29.18 "Hg4 mi
5:30 AM45 °FPartly cloudy.3 mph87%29.18 "HgN/A
5:00 AM45 °FLight rain. Mostly cloudy.6 mph87%29.18 "HgN/A
4:30 AM45 °FLight rain. Mostly cloudy.6 mph87%29.18 "HgN/A
4:00 AM45 °FLight rain. Mostly cloudy.10 mph87%29.21 "HgN/A
3:30 AM46 °FLight rain. Mostly cloudy.13 mph82%29.24 "Hg6 mi
3:00 AM46 °FLight rain. Mostly cloudy.14 mph82%29.24 "HgN/A
2:30 AM46 °FOvercast.10 mph76%29.24 "HgN/A
2:00 AM48 °FMostly cloudy.14 mph71%29.24 "HgN/A
1:30 AM48 °FPassing clouds.16 mph71%29.24 "HgN/A
1:00 AM46 °FLight rain. Mostly cloudy.17 mph82%29.27 "HgN/A
12:30 AM46 °FMostly cloudy.16 mph82%29.27 "HgN/A
12:00 AM46 °FPassing clouds.21 mph82%29.27 "HgN/A
11:30 PM
Sat, Feb 13
48 °FOvercast.26 mph76%29.27 "HgN/A
10:30 PM46 °FPartly cloudy.23 mph87%29.24 "HgN/A
10:00 PM48 °FPartly cloudy.25 mph82%29.24 "HgN/A
9:30 PM48 °FPartly cloudy.25 mph82%29.24 "HgN/A
9:00 PM48 °FMostly cloudy.21 mph82%29.24 "HgN/A
8:30 PM48 °FOvercast.25 mph82%29.24 "HgN/A
8:00 PM48 °FOvercast.28 mph82%29.21 "HgN/A
7:30 PM50 °FMostly cloudy.28 mph76%29.21 "HgN/A
7:00 PM48 °FPartly cloudy.18 mph87%29.21 "HgN/A
6:30 PM48 °FLight rain. Mostly cloudy.26 mph87%29.21 "HgN/A
6:00 PM48 °FLight rain. Mostly cloudy.21 mph82%29.18 "HgN/A
5:30 PM48 °FOvercast.17 mph87%29.18 "HgN/A
5:00 PM50 °FBroken clouds.16 mph82%29.18 "HgN/A
4:30 PM48 °FMore clouds than sun.20 mph82%29.21 "HgN/A
4:00 PM48 °FBroken clouds.16 mph87%29.21 "HgN/A
3:30 PM48 °FBroken clouds.21 mph82%29.21 "HgN/A
3:00 PM48 °FBroken clouds.20 mph87%29.21 "HgN/A
2:30 PM46 °FLight rain. Broken clouds.24 mph93%29.21 "HgN/A
2:00 PM48 °FLight rain. Broken clouds.21 mph87%29.21 "HgN/A
1:30 PM48 °FLight rain. Broken clouds.22 mph82%29.21 "HgN/A
1:00 PM48 °FBroken clouds.20 mph82%29.21 "HgN/A
12:30 PM46 °FOvercast.23 mph82%29.24 "HgN/A
12:00 PM45 °FMore clouds than sun.20 mph87%29.24 "HgN/A
11:30 AM43 °FPartly sunny.21 mph87%29.27 "HgN/A
11:00 AM43 °FPartly sunny.23 mph87%29.30 "HgN/A
Weather by CustomWeather, © 2016

See weather overviewHow to use our weather pages